Temperature
12 12 12 12 12 13 13 13 13 13 13 14 15 15 15 16 16 16 16 16 16 17 17 17 17 16 16 16 16 16 16 16 16 16 16 16 16 15
11 12 12 12 12 12 12 12 12 12 12 13 14 14 15 15 15 15 16 16 16 16 16 17 17 17 16 16 16 16 16 16 16 16 15 15 15 15
11 11 12 12 12 12 12 12 12 12 12 13 13 14 14 14 15 15 15 15 16 16 16 16 16 16 16 16 16 16 16 16 16 15 15 15 15 15
11 11 11 12 12 12 12 12 12 12 12 12 13 13 14 14 14 15 15 15 15 16 16 16 16 16 16 16 16 16 16 16 15 15 15 15 15 15
11 11 11 11 11 11 11 12 12 12 12 12 12 13 13 13 14 14 14 15 15 15 15 15 16 16 16 16 16 16 16 16 16 15 15 15 15 15
11 11 11 11 11 11 11 11 11 11 11 11 12 12 13 13 13 14 14 14 15 15 15 15 15 15 16 16 16 16 16 16 15 15 15 15 15 15
11 11 11 11 11 11 11 11 11 11 11 11 12 12 12 12 13 13 13 14 14 15 15 15 15 15 15 15 15 15 15 15 15 15 15 15 15 15
11 11 11 11 11 11 11 11 11 11 11 11 12 12 12 12 12 12 13 13 13 14 14 15 14 15 15 15 15 15 15 15 15 15 15 15 15 14
11 11 11 11 11 11 11 11 11 11 11 11 11 12 12 12 12 12 12 12 13 13 13 14 14 14 14 15 15 15 15 15 15 15 15 14 14 14
11 11 11 11 11 11 11 11 11 11 11 11 11 11 12 12 12 12 12 12 13 13 13 13 14 14 14 14 14 14 15 15 14 14 14 14 14 14
12 11 11 11 11 11 11 11 11 11 11 11 11 11 11 11 11 11 12 12 12 13 13 12 13 13 14 14 14 14 14 14 14 14 14 14 14 14
12 11 11 11 11 11 11 11 11 11 11 11 11 12 12 11 11 11 11 11 11 12 12 12 13 12 13 13 14 14 14 14 14 14 14 14 14 13
12 12 11 11 11 11 11 11 11 11 11 11 12 12 12 12 12 12 11 11 11 12 12 12 12 12 12 12 13 13 13 13 13 13 13 13 13 13
12 12 11 11 11 11 11 11 11 11 11 11 11 11 11 11 11 11 11 11 11 12 12 11 11 12 12 12 12 12 13 13 13 13 13 13 13 13
12 12 11 11 11 11 11 11 11 11 11 11 11 11 11 11 11 11 11 11 11 11 11 11 11 11 11 11 11 12 12 12 12 12 12 12 13 13
12 12 11 11 11 11 11 11 11 10 10 11 11 11 11 11 11 11 11 11 11 11 11 11 11 11 11 11 11 11 11 11 12 12 12 12 12 12
12 12 11 11 11 11 11 11 11 10 10 10 10 11 11 11 11 11 11 11 11 11 11 11 11 11 11 11 11 11 11 11 11 11 11 11 12 12
11 11 11 11 10 10 10 10 10 10 10 10 10 10 10 10 10 10 10 10 10 11 11 11 11 11 11 11 11 11 11 11 11 11 11 11 11 11
11 11 10 10 10 10 10 10 10 10 10 10 10 10 10 10 10 10 10 10 10 10 10 10 10 10 10 10 11 11 11 11 11 11 11 11 11 11
10 10 9 9 9 9 9 9 9 9 9 9 9 9 9 9 10 10 10 10 10 10 10 10 10 10 10 10 10 11 11 10 10 10 10 10 10 10
8 8 8 8 8 8 8 8 8 8 8 8 9 9 9 9 9 9 9 9 9 9 10 10 10 10 10 10 10 10 11 11 10 10 10 10 10 10
7 7 7 7 7 7 7 7 7 7 7 8 8 8 8 8 8 8 8 9 9 9 9 9 10 10 10 10 10 10 10 10 10 10 10 10 10 10
6 6 6 6 6 6 6 6 6 6 6 6 6 7 7 7 7 8 8 8 8 8 9 9 9 9 9 10 10 10 10 10 10 10 10 10 10 10
Wind_Speed
2 2 1 2 2 3 3 3 3 2 3 3 2 2 2 4 6 8 9 12 16 18 19 20 20 21 23 24 24 24 23 23 22 21 21 20 19 19
2 2 2 2 2 2 2 3 3 4 3 3 3 2 2 4 6 8 9 12 15 17 19 20 20 21 22 23 24 24 24 23 23 22 22 21 21 20
3 3 3 3 2 2 2 2 3 3 5 4 3 2 3 4 4 5 7 8 10 14 17 18 20 21 22 22 23 24 24 24 24 23 23 23 22 21
4 3 4 3 3 3 2 3 3 4 4 5 3 3 4 4 5 5 4 6 8 11 15 17 18 20 21 22 23 23 24 24 24 24 24 24 23 22
4 3 4 4 4 3 3 3 3 4 4 4 4 3 3 3 3 4 4 4 6 9 12 14 16 18 20 21 22 23 23 24 24 25 25 25 24 23
4 4 4 4 5 4 4 4 4 4 4 4 5 4 3 3 3 3 4 3 4 5 7 10 13 16 19 20 22 22 23 24 24 25 25 25 25 25
4 4 5 5 6 5 4 4 3 4 4 4 5 4 4 3 3 3 4 4 4 4 4 5 6 7 10 15 19 21 22 23 24 24 25 26 26 25
5 5 5 5 6 7 7 6 5 5 5 5 5 5 6 5 4 4 4 4 4 3 4 5 5 7 7 9 15 18 21 22 23 24 25 26 26 26
4 4 4 4 5 4 6 7 7 8 8 6 7 7 6 5 4 5 5 5 6 3 3 5 5 7 6 10 15 18 20 21 22 23 24 25 26 26
4 5 5 5 5 5 4 5 6 6 7 6 7 8 8 7 6 7 6 6 5 4 4 5 4 5 5 6 13 17 18 19 21 22 23 24 25 26
5 4 5 5 8 7 4 6 7 6 7 8 9 10 11 11 8 5 5 5 5 4 4 4 3 3 4 5 8 15 17 18 19 21 22 22 23 24
4 4 6 6 8 7 4 5 7 7 6 7 7 8 7 8 9 7 6 6 4 4 4 4 3 3 3 3 4 6 9 13 17 19 20 20 21 17
4 4 4 7 8 8 7 5 8 8 6 6 6 6 5 5 5 6 6 7 7 5 4 4 3 4 4 2 2 4 6 6 8 11 16 18 20 17
5 4 4 7 8 9 7 7 9 8 4 5 5 5 5 5 4 5 6 7 7 7 6 5 4 5 4 4 3 3 4 5 6 7 8 12 16 19
4 5 6 7 8 7 8 9 7 4 4 4 5 5 4 4 4 3 4 4 5 6 6 7 7 6 5 5 4 3 3 4 6 6 7 8 8 8
2 2 4 5 4 5 6 5 4 3 3 4 5 5 4 3 3 3 3 2 3 4 5 6 7 7 7 6 6 6 5 4 5 7 7 7 7 9
1 2 3 3 5 5 5 5 4 4 4 3 4 5 4 4 4 3 3 3 4 4 4 3 4 5 7 7 6 7 6 6 5 6 7 8 8 9
4 3 3 4 4 5 5 6 5 5 4 4 5 5 5 5 5 4 3 4 5 5 5 4 3 3 4 6 9 8 7 7 6 7 7 8 9 8
6 4 4 4 5 5 5 5 5 6 5 5 5 5 5 5 5 5 5 5 6 6 6 4 4 5 7 7 5 10 9 7 6 7 7 8 8 8
6 5 5 5 5 5 5 5 5 6 6 6 6 6 6 6 6 6 6 6 6 6 6 5 6 7 8 7 5 5 11 9 7 8 7 5 4 3
5 5 5 5 5 5 6 6 6 6 6 6 7 7 7 7 7 7 7 8 7 6 7 7 7 8 5 4 4 5 5 10 10 7 7 6 4 4
4 4 4 5 5 5 5 5 6 6 7 6 7 7 7 7 8 9 8 7 7 7 8 7 5 4 4 6 8 7 5 4 7 9 9 8 6 8
4 4 4 4 4 4 4 5 6 6 6 6 7 7 8 8 8 8 9 9 8 8 7 6 4 4 6 7 8 7 7 6 4 5 5 7 8 7
Wind_Direction
310 310 293 278 263 237 222 205 197 235 261 260 263 268 253 244 243 238 237 237 232 229 226 225 225 225 224 222 219 218 219 219 218 215 212 212 213 211
308 318 312 292 287 260 236 227 214 212 241 253 250 268 266 263 245 241 241 241 237 232 228 226 226 226 224 223 221 218 218 217 217 215 212 212 212 210
328 321 311 302 294 285 262 240 231 222 244 261 249 258 261 262 265 251 248 241 241 236 232 229 227 226 224 222 220 218 216 216 215 215 213 212 212 209
319 320 312 315 302 288 274 258 245 232 233 257 262 256 252 256 257 256 252 244 239 240 235 232 229 226 224 222 219 218 216 214 213 213 212 212 211 210
301 300 298 302 293 284 277 267 260 253 234 244 260 249 255 254 257 259 251 249 247 243 238 235 233 230 226 222 219 217 215 214 212 212 211 211 210 210
292 286 284 277 271 275 275 268 260 256 246 247 257 258 254 253 242 251 260 246 252 249 240 236 234 231 227 222 219 218 216 214 213 213 211 210 208 208
299 292 286 286 280 269 264 262 256 254 254 250 254 258 258 250 246 240 253 264 256 235 238 234 228 228 223 222 220 218 216 214 213 213 212 210 209 208
292 298 298 298 309 311 307 295 275 260 256 254 256 254 258 248 245 246 249 256 262 230 222 238 216 230 225 218 218 216 217 216 213 212 212 210 209 208
276 289 302 306 314 301 304 309 301 289 272 258 258 257 255 242 239 247 242 244 248 234 219 243 221 232 228 222 217 214 215 216 215 214 212 210 208 207
268 269 277 293 297 293 290 297 290 284 275 265 253 257 253 248 238 245 252 256 262 244 212 238 226 231 230 222 218 214 213 214 215 215 213 211 209 207
273 267 265 278 296 302 295 294 295 289 278 271 269 269 268 261 249 244 243 245 258 243 206 221 226 230 232 230 220 216 216 216 216 216 215 212 208 207
282 277 273 277 293 301 285 284 292 292 295 299 294 288 277 269 256 236 235 242 246 246 211 205 215 204 246 236 221 215 218 221 219 216 214 211 206 206
274 281 279 291 298 302 297 272 276 286 289 287 289 289 283 267 255 240 232 233 238 242 212 197 214 206 219 242 238 222 218 221 219 219 215 210 205 203
251 263 277 298 304 307 303 293 296 298 287 287 288 287 285 277 265 250 242 237 238 243 229 210 220 214 221 235 244 232 221 217 217 220 214 207 207 207
242 261 287 308 318 318 315 317 318 306 296 292 292 289 280 275 276 267 250 241 245 246 238 231 229 226 229 235 234 229 233 227 217 218 213 209 208 205
274 321 337 342 339 323 324 328 325 301 294 290 294 291 289 287 286 279 267 263 262 259 238 229 229 229 239 238 237 240 228 221 215 215 215 217 211 206
92 48 26 8 1 354 345 336 332 331 320 303 299 301 302 299 292 280 265 262 262 270 272 246 231 234 238 234 237 237 233 232 225 218 216 223 221 214
88 57 30 13 358 348 343 340 337 337 328 317 312 307 306 304 300 289 267 265 268 266 265 258 245 250 246 243 226 233 232 231 225 214 215 224 227 218
64 50 31 11 360 352 345 341 339 336 334 331 326 321 317 312 306 300 292 284 278 272 265 249 239 247 258 261 234 211 219 223 216 218 220 223 230 221
48 40 25 9 1 355 351 350 347 348 351 347 342 338 332 325 317 310 303 295 290 284 276 257 242 239 245 256 254 228 210 214 216 220 218 218 230 219
39 32 21 12 6 1 358 357 358 356 352 350 347 343 339 334 325 318 311 300 290 285 279 273 259 241 243 243 253 249 227 215 214 212 202 202 208 205
33 25 13 9 6 5 3 2 2 360 357 353 346 341 336 331 327 323 319 313 303 293 286 281 271 245 230 240 252 254 243 223 223 221 210 199 196 203
15 12 5 359 359 359 359 359 359 355 351 347 342 338 335 332 327 321 319 316 311 303 299 294 281 257 252 248 251 252 244 230 214 215 228 229 222 220
Height
1487 1487 1487 1487 1487 1488 1489 1490 1491 1490 1490 1491 1493 1494 1495 1497 1498 1500 1502 1505 1508 1510 1513 1516 1519 1521 1524 1526 1529 1531 1534 1536 1538 1540 1542 1544 1545 1547
1485 1485 1485 1485 1485 1485 1486 1486 1487 1488 1488 1487 1489 1490 1491 1493 1494 1496 1497 1499 1502 1504 1507 1510 1512 1515 1518 1520 1523 1526 1528 1531 1533 1535 1537 1539 1541 1543
1483 1483 1482 1482 1482 1482 1483 1483 1484 1484 1484 1484 1485 1486 1487 1488 1489 1491 1492 1494 1496 1498 1501 1503 1506 1508 1511 1514 1517 1520 1522 1525 1528 1530 1532 1534 1536 1538
1481 1481 1480 1480 1480 1480 1480 1480 1480 1481 1481 1480 1481 1482 1483 1484 1485 1485 1487 1488 1490 1492 1494 1496 1499 1501 1504 1507 1510 1513 1516 1519 1521 1524 1526 1529 1531 1533
1480 1479 1478 1478 1477 1477 1477 1477 1477 1477 1477 1477 1477 1478 1478 1479 1480 1481 1482 1483 1484 1486 1488 1490 1492 1494 1497 1500 1502 1506 1509 1512 1515 1517 1520 1522 1525 1527
1478 1477 1476 1475 1475 1474 1474 1474 1474 1474 1473 1473 1473 1473 1474 1474 1475 1476 1476 1478 1479 1480 1482 1483 1485 1487 1490 1492 1495 1498 1501 1504 1507 1510 1513 1515 1518 1520
1477 1475 1474 1473 1473 1472 1471 1471 1471 1470 1470 1469 1469 1469 1469 1470 1471 1471 1472 1472 1473 1475 1475 1477 1478 1480 1482 1485 1487 1490 1493 1496 1499 1502 1505 1508 1511 1513
1475 1474 1473 1471 1470 1469 1469 1468 1468 1467 1466 1466 1465 1465 1465 1466 1467 1467 1467 1468 1468 1469 1469 1470 1472 1472 1474 1477 1479 1482 1485 1488 1491 1494 1497 1499 1502 1505
1473 1472 1471 1469 1468 1467 1466 1465 1464 1463 1463 1463 1462 1461 1462 1462 1462 1462 1462 1463 1463 1464 1465 1464 1465 1466 1468 1470 1472 1474 1477 1480 1482 1485 1488 1491 1494 1497
1472 1470 1468 1467 1466 1464 1463 1462 1461 1460 1459 1459 1458 1457 1458 1458 1458 1458 1458 1458 1458 1458 1459 1459 1459 1460 1462 1463 1465 1466 1468 1471 1474 1477 1479 1482 1485 1488
1470 1468 1466 1465 1463 1462 1460 1459 1457 1457 1456 1455 1454 1453 1453 1453 1453 1453 1453 1453 1452 1452 1454 1454 1453 1454 1455 1456 1458 1459 1461 1463 1466 1468 1470 1473 1476 1479
1467 1466 1464 1463 1461 1460 1458 1456 1454 1453 1452 1451 1450 1449 1449 1448 1448 1448 1448 1448 1447 1447 1448 1448 1448 1449 1449 1449 1451 1452 1454 1456 1457 1459 1462 1464 1467 1470
1465 1464 1462 1461 1459 1458 1456 1454 1452 1451 1449 1448 1446 1445 1445 1444 1444 1443 1443 1443 1443 1442 1443 1444 1443 1444 1444 1444 1444 1446 1447 1448 1450 1452 1454 1456 1459 1461
1462 1461 1460 1458 1457 1455 1453 1452 1450 1448 1446 1445 1443 1442 1441 1440 1439 1439 1438 1438 1438 1438 1438 1438 1438 1438 1439 1438 1439 1439 1441 1442 1443 1444 1446 1448 1450 1452
1459 1458 1456 1455 1454 1452 1451 1449 1447 1446 1444 1442 1440 1439 1438 1436 1435 1435 1434 1433 1433 1433 1433 1432 1433 1433 1433 1433 1433 1434 1435 1435 1436 1437 1439 1440 1442 1444
1455 1454 1453 1452 1451 1450 1448 1447 1445 1443 1442 1440 1438 1436 1435 1433 1432 1431 1430 1429 1428 1428 1428 1428 1427 1427 1427 1427 1428 1428 1429 1429 1430 1431 1432 1433 1435 1436
1452 1451 1450 1449 1448 1447 1446 1444 1443 1441 1439 1437 1436 1434 1432 1431 1430 1428 1427 1426 1425 1423 1423 1423 1423 1422 1422 1422 1422 1422 1423 1423 1424 1425 1426 1426 1427 1429
1449 1448 1447 1446 1445 1444 1442 1441 1440 1438 1437 1435 1433 1432 1430 1428 1427 1426 1424 1423 1421 1420 1419 1419 1418 1418 1417 1416 1416 1416 1417 1417 1418 1419 1420 1420 1420 1422
1446 1445 1445 1444 1443 1441 1440 1439 1437 1436 1435 1433 1431 1429 1428 1426 1424 1423 1421 1419 1418 1416 1415 1414 1414 1413 1412 1410 1410 1411 1411 1411 1412 1412 1413 1414 1414 1416
1444 1443 1443 1442 1441 1439 1438 1437 1435 1434 1432 1430 1429 1427 1425 1423 1421 1419 1417 1416 1414 1412 1410 1409 1409 1408 1407 1405 1404 1404 1405 1405 1405 1406 1407 1408 1408 1410
1443 1442 1441 1440 1439 1437 1436 1435 1433 1431 1429 1428 1426 1424 1422 1420 1418 1416 1414 1412 1410 1408 1406 1405 1404 1403 1401 1400 1399 1397 1398 1399 1399 1400 1401 1402 1402 1403
1442 1441 1440 1439 1437 1436 1434 1432 1431 1429 1427 1424 1422 1420 1418 1416 1414 1412 1410 1408 1406 1404 1402 1400 1399 1397 1396 1395 1393 1392 1392 1393 1393 1393 1394 1395 1395 1396
1442 1440 1439 1437 1436 1434 1432 1430 1428 1426 1424 1421 1419 1417 1415 1412 1410 1408 1406 1404 1402 1399 1397 1395 1393 1392 1390 1389 1388 1387 1386 1386 1386 1386 1387 1388 1389 1391